Weather History for Langley AFB, VA

Change the Weather History Date:

Monday, October 29, 2012

  Actual Average Record
Temperature  
Mean Temperature 50 °F -  
Max Temperature 57 °F 62 °F 82 °F (1984)
Min Temperature 42 °F 47 °F 30 °F (2001)
Degree Days  
Heating Degree Days 16    
Moisture  
Dew Point 48 °F    
Average Humidity 90    
Maximum Humidity 94    
Minimum Humidity 81    
Precipitation  
Precipitation 4.13 in - - ()
Sea Level Pressure  
Sea Level Pressure 29.21 in    
Wind  
Wind Speed 20 mph (NW)    
Max Wind Speed 29 mph    
Max Gust Speed 44 mph    
Visibility 6 miles    
Events Rain    
Averages and records for this station are not official NWS values.
T = Trace of Precipitation, MM = Missing Value Source: NWS Daily Summary

Daily Weather History Graph

Daily Weather History Graph

Search for Another Location

Airport:

Trip Planner

Search our weather history database for the weather conditions in past years. The results will help you decide how hot, cold, wet, or windy it might be!

Date:

Astronomy

Oct. 29, 2012 Rise Set
Actual Time 7:27 AM EDT 6:10 PM EDT
Civil Twilight 7:00 AM EDT 6:37 PM EDT
Nautical Twilight 6:29 AM EDT 7:07 PM EDT
Astronomical Twilight 5:59 AM EDT 7:38 PM EDT
Moon 6:02 PM EDT (10/29) 7:14 AM EDT (10/29)
Length of Visible Light 11h 37m
Length of Day
10h 43m
Full, 100% of the Moon is Illuminated
Oct 29
Full
Oct 29
Full
Nov 6
Last Quarter
Nov 13
New
Nov 20
First Quarter

Hourly Weather History & Observations

Time (EDT) Temp. Windchill Dew Point Humidity Pressure Visibility Wind Dir Wind Speed Gust Speed Precip Events Conditions
12:55 AM 57.6 °F - 54.3 °F 89% 29.39 in 10.0 mi North 24.2 mph 36.8 mph 0.06 in Rain Light Rain
1:55 AM 57.4 °F - 54.0 °F 88% 29.37 in 10.0 mi North 20.7 mph 31.1 mph 0.07 in Rain Light Rain
2:55 AM 56.7 °F - 53.2 °F 88% 29.35 in 10.0 mi North 17.3 mph 36.8 mph 0.09 in Rain Rain
3:22 AM 57.2 °F - 53.6 °F 88% 29.35 in 8.0 mi North 18.4 mph 28.8 mph N/A Rain Heavy Rain
3:32 AM 57.2 °F - 53.6 °F 88% 29.34 in 8.0 mi North 18.4 mph 32.2 mph N/A Rain Heavy Rain
3:48 AM 55.4 °F - 53.6 °F 94% 29.33 in 8.0 mi North 19.6 mph 33.4 mph N/A Rain Heavy Rain
3:55 AM 56.1 °F - 52.9 °F 89% 29.32 in 7.0 mi North 24.2 mph 33.4 mph 0.19 in Rain Heavy Rain
4:02 AM 55.4 °F - 53.6 °F 94% 29.34 in 7.0 mi North 19.6 mph 31.1 mph N/A Rain Heavy Rain
4:33 AM 55.4 °F - 53.6 °F 94% 29.34 in 7.0 mi North 16.1 mph 28.8 mph N/A Rain Heavy Rain
4:39 AM 55.4 °F - 53.6 °F 94% 29.33 in 7.0 mi North 17.3 mph 28.8 mph N/A Rain Heavy Rain
4:43 AM 55.4 °F - 53.6 °F 94% 29.33 in 7.0 mi North 17.3 mph 28.8 mph N/A Rain Heavy Rain
4:48 AM 55.4 °F - 53.6 °F 94% 29.33 in 7.0 mi North 15.0 mph 28.8 mph N/A Rain Heavy Rain
4:55 AM 55.4 °F - 52.7 °F 91% 29.32 in 7.0 mi North 17.3 mph 26.5 mph 0.28 in Rain Heavy Rain
5:07 AM 55.4 °F - 53.6 °F 94% 29.32 in 8.0 mi North 15.0 mph 26.5 mph N/A Rain Heavy Rain
5:22 AM 55.4 °F - 53.6 °F 94% 29.33 in 8.0 mi North 19.6 mph 31.1 mph N/A Rain Heavy Rain
5:35 AM 55.4 °F - 51.8 °F 88% 29.33 in 5.0 mi North 16.1 mph 24.2 mph N/A Rain Heavy Rain
5:47 AM 55.4 °F - 51.8 °F 88% 29.34 in 5.0 mi NNW 13.8 mph 25.3 mph N/A Rain Heavy Rain
5:55 AM 55.0 °F - 52.3 °F 91% 29.34 in 6.0 mi NNW 15.0 mph 25.3 mph 0.29 in Rain Heavy Rain
5:57 AM 55.4 °F - 51.8 °F 88% 29.34 in 5.0 mi NNW 16.1 mph 28.8 mph N/A Rain Heavy Rain
6:17 AM 53.6 °F - 51.8 °F 94% 29.32 in 6.0 mi NNW 18.4 mph 24.2 mph N/A Rain Heavy Rain
6:35 AM 53.6 °F - 51.8 °F 94% 29.33 in 6.0 mi NNW 15.0 mph 23.0 mph N/A Rain Heavy Rain
6:55 AM 54.0 °F - 51.1 °F 90% 29.33 in 6.0 mi NW 11.5 mph 21.9 mph 0.32 in Rain Heavy Rain
7:04 AM 53.6 °F - 51.8 °F 94% 29.31 in 7.0 mi NNW 16.1 mph - N/A Rain Heavy Rain
7:12 AM 53.6 °F - 51.8 °F 94% 29.31 in 8.0 mi NNW 17.3 mph 25.3 mph N/A Rain Heavy Rain
7:24 AM 53.6 °F - 51.8 °F 94% 29.31 in 8.0 mi NNW 15.0 mph 21.9 mph N/A Rain Rain
7:31 AM 53.6 °F - 51.8 °F 94% 29.30 in 10.0 mi NNW 20.7 mph 27.6 mph N/A Rain Rain
7:55 AM 53.6 °F - 51.1 °F 91% 29.29 in 10.0 mi NNW 17.3 mph 25.3 mph 0.17 in Rain Rain
8:32 AM 53.6 °F - 50.0 °F 88% 29.28 in 10.0 mi NNW 17.3 mph 26.5 mph N/A Rain Rain
8:44 AM 53.6 °F - 50.0 °F 88% 29.29 in 10.0 mi NW 13.8 mph 23.0 mph N/A Rain Rain
8:55 AM 52.9 °F - 49.8 °F 89% 29.29 in 10.0 mi NW 15.0 mph 23.0 mph 0.11 in Rain Rain
9:55 AM 52.3 °F - 49.3 °F 89% 29.25 in 10.0 mi NW 13.8 mph 29.9 mph 0.09 in Rain Rain
10:55 AM 52.0 °F - 48.6 °F 88% 29.21 in 4.0 mi NW 23.0 mph 32.2 mph 0.27 in Rain Heavy Rain
11:29 AM 51.8 °F - 48.2 °F 88% 29.20 in 4.0 mi WNW 18.4 mph 25.3 mph N/A Rain Heavy Rain
11:55 AM 51.4 °F - 48.0 °F 88% 29.20 in 6.0 mi WNW 16.1 mph 26.5 mph 0.30 in Rain Rain
12:03 PM 51.8 °F - 48.2 °F 88% 29.19 in 4.0 mi WNW 17.3 mph 26.5 mph N/A Rain Heavy Rain
12:10 PM 51.8 °F - 48.2 °F 88% 29.19 in 3.0 mi WNW 19.6 mph 26.5 mph N/A Rain Heavy Rain
12:14 PM 51.8 °F - 48.2 °F 88% 29.19 in 2.5 mi WNW 19.6 mph 27.6 mph N/A Rain Heavy Rain
12:19 PM 51.8 °F - 48.2 °F 88% 29.18 in 2.0 mi WNW 17.3 mph 27.6 mph N/A Rain Heavy Rain
12:24 PM 51.8 °F - 48.2 °F 88% 29.17 in 1.8 mi WNW 20.7 mph 29.9 mph N/A Rain Heavy Rain
12:33 PM 50.0 °F - 48.2 °F 94% 29.16 in 1.8 mi NW 20.7 mph 29.9 mph N/A Rain Heavy Rain
12:36 PM 50.0 °F - 48.2 °F 94% 29.16 in 2.0 mi WNW 16.1 mph 29.9 mph N/A Rain Heavy Rain
12:43 PM 50.0 °F - 48.2 °F 94% 29.16 in 2.5 mi WNW 18.4 mph 32.2 mph N/A Rain Heavy Rain
12:55 PM 50.7 °F - 47.7 °F 89% 29.15 in 2.5 mi WNW 20.7 mph 29.9 mph 0.43 in Rain Heavy Rain
1:03 PM 50.0 °F - 48.2 °F 94% 29.14 in 3.0 mi WNW 23.0 mph 32.2 mph N/A Rain Heavy Rain
1:07 PM 50.0 °F - 48.2 °F 94% 29.14 in 3.0 mi WNW 21.9 mph 31.1 mph N/A Rain Heavy Rain
1:10 PM 50.0 °F - 48.2 °F 94% 29.14 in 3.0 mi WNW 20.7 mph 31.1 mph N/A Rain Heavy Rain
1:11 PM 50.0 °F - 48.2 °F 94% 29.14 in 2.5 mi WNW 18.4 mph 31.1 mph N/A Rain Heavy Rain
1:14 PM 50.0 °F - 48.2 °F 94% 29.13 in 3.0 mi WNW 19.6 mph 31.1 mph N/A Rain Heavy Rain
1:55 PM 50.2 °F - 46.8 °F 88% 29.11 in 6.0 mi WNW 19.6 mph 35.7 mph 0.30 in Rain Rain
2:55 PM 49.6 °F - 46.2 °F 88% 29.08 in 4.0 mi West 17.3 mph 38.0 mph 0.16 in Rain Rain
3:55 PM 48.6 °F - 45.0 °F 87% 29.05 in 5.0 mi West 26.5 mph 39.1 mph 0.17 in Rain Rain
4:55 PM 47.5 °F - 43.9 °F 87% 29.03 in 5.0 mi West 27.6 mph 38.0 mph 0.16 in Rain Rain
5:55 PM 46.9 °F - 43.2 °F 87% 29.01 in 5.0 mi West 28.8 mph 38.0 mph 0.13 in Rain Light Rain
6:22 PM 46.4 °F 37.4 °F 42.8 °F 87% 29.01 in 7.0 mi West 28.8 mph 43.7 mph N/A Rain Light Rain
6:27 PM 46.4 °F 37.7 °F 42.8 °F 87% 29.01 in 8.0 mi West 26.5 mph 43.7 mph N/A Rain Light Rain
6:55 PM 46.0 °F 37.2 °F 42.4 °F 87% 29.01 in 8.0 mi West 26.5 mph 36.8 mph 0.08 in Rain Light Rain
7:21 PM 46.4 °F 37.9 °F 41.0 °F 81% 29.02 in 7.0 mi West 25.3 mph 36.8 mph N/A Rain Rain
7:55 PM 45.3 °F 35.9 °F 41.7 °F 87% 29.02 in 6.0 mi WSW 28.8 mph 35.7 mph 0.11 in Rain Light Rain
8:43 PM 44.6 °F 35.7 °F 41.0 °F 87% 29.03 in 8.0 mi WSW 24.2 mph 39.1 mph N/A Rain Light Rain
8:55 PM 44.4 °F 35.5 °F 40.5 °F 86% 29.03 in 8.0 mi WSW 24.2 mph 39.1 mph 0.10 in Rain Rain
8:57 PM 44.6 °F 35.5 °F 41.0 °F 87% 29.03 in 7.0 mi WSW 25.3 mph 38.0 mph N/A Rain Light Rain
9:55 PM 43.2 °F 33.8 °F 39.0 °F 85% 29.05 in 9.0 mi WSW 24.2 mph 40.3 mph 0.06 in Rain Light Rain
9:57 PM 42.8 °F 32.7 °F 39.2 °F 87% 29.05 in 6.0 mi WSW 27.6 mph 39.1 mph N/A Rain Rain
10:30 PM 42.8 °F 33.3 °F 39.2 °F 87% 29.06 in 8.0 mi WSW 24.2 mph 38.0 mph N/A Rain Rain
10:55 PM 42.4 °F 32.6 °F 38.3 °F 85% 29.06 in 10.0 mi WSW 25.3 mph 38.0 mph 0.16 in Rain Light Rain
11:55 PM 42.3 °F 33.6 °F 37.8 °F 84% 29.07 in 10.0 mi WSW 19.6 mph 40.3 mph 0.03 in Rain Light Rain